Weather History for Springfield, IL

Change the Weather History Date:

Thursday, February 20, 2014

  Actual Average Record
Temperature  
Mean Temperature 50 °F 33 °F  
Max Temperature 63 °F 42 °F 68 °F (1930)
Min Temperature 36 °F 24 °F -9 °F (1885)
Degree Days  
Heating Degree Days 15 32  
Month to date heating degree days 937 702  
Since 1 July heating degree days 4633 4028  
Cooling Degree Days 0 0  
Month to date cooling degree days 0 0  
Year to date cooling degree days 0 0  
Moisture  
Dew Point 40 °F    
Average Humidity 81    
Maximum Humidity 92    
Minimum Humidity 70    
Precipitation  
Precipitation 0.23 in 0.07 in 3.38 in (1898)
Month to date precipitation 2.90 1.22  
Year to date precipitation 5.14 3.04  
Snow  
Snow 0.00 in 0.10 in 3.60 in (1989)
Month to date snowfall 15.1 4.1  
Since 1 July snowfall 41.4 16.7  
Snow Depth 5.00 in    
Sea Level Pressure  
Sea Level Pressure 29.51 in    
Wind  
Wind Speed 20 mph (South)    
Max Wind Speed 51 mph    
Max Gust Speed 64 mph    
Visibility 9 miles    
Events Rain , Thunderstorm    
T = Trace of Precipitation, MM = Missing Value Source: NWS Daily Summary

Daily Weather History Graph

Daily Weather History Graph

Search for Another Location

Airport:

Trip Planner

Search our weather history database for the weather conditions in past years. The results will help you decide how hot, cold, wet, or windy it might be!

Date:

Astronomy

Feb. 20, 2014 Rise Set
Actual Time 6:44 AM CST 5:40 PM CST
Civil Twilight 6:17 AM CST 6:08 PM CST
Nautical Twilight 5:45 AM CST 6:39 PM CST
Astronomical Twilight 5:14 AM CST 7:10 PM CST
Moon 11:34 PM CST (2/20) 9:28 AM CST (2/20)
Length of Visible Light 11h 50m
Length of Day
10h 55m
Waning Gibbous, 70% of the Moon is Illuminated
Feb 20
Waning Gibbous
Feb 22
Last Quarter
Mar 1
New
Mar 8
First Quarter
Mar 16
Full

Hourly Weather History & Observations

Time (CST) Temp. Windchill Dew Point Humidity Pressure Visibility Wind Dir Wind Speed Gust Speed Precip Events Conditions
12:14 AM 39.2 °F 34.2 °F 30.2 °F 70% 29.85 in 10.0 mi NW 6.9 mph - 0.00 in Thunderstorm Overcast
12:50 AM 39.2 °F 30.8 °F 32.0 °F 75% 29.76 in 10.0 mi East 15.0 mph 25.3 mph 0.07 in   Overcast
12:51 AM 39.0 °F 30.3 °F 32.0 °F 76% 29.77 in 10.0 mi East 16.1 mph 25.3 mph 0.07 in   Overcast
12:58 AM 39.2 °F 29.6 °F 32.0 °F 75% 29.73 in 10.0 mi ESE 19.6 mph - N/A   Overcast
1:52 AM 37.9 °F 29.2 °F 32.0 °F 79% 29.71 in 10.0 mi SE 15.0 mph - 0.00 in Rain Light Rain
2:10 AM 37.4 °F 28.9 °F 32.0 °F 81% 29.68 in 10.0 mi SE 13.8 mph - 0.00 in   Overcast
2:52 AM 42.1 °F 33.1 °F 33.1 °F 70% 29.65 in 10.0 mi SSE 20.7 mph 28.8 mph 0.00 in Rain Light Rain
3:50 AM 42.8 °F 33.5 °F 33.8 °F 70% 29.60 in 10.0 mi SSE 23.0 mph - 0.00 in   Overcast
3:52 AM 42.1 °F 33.1 °F 34.0 °F 73% 29.61 in 10.0 mi SSE 20.7 mph - 0.00 in   Overcast
3:59 AM 42.8 °F 34.3 °F 33.8 °F 70% 29.59 in 10.0 mi South 19.6 mph - N/A Thunderstorm Overcast
4:49 AM 41.0 °F 31.4 °F 33.8 °F 76% 29.58 in 10.0 mi South 21.9 mph 29.9 mph 0.00 in   Mostly Cloudy
4:52 AM 42.1 °F 33.1 °F 35.1 °F 76% 29.59 in 10.0 mi South 20.7 mph 28.8 mph 0.00 in   Mostly Cloudy
4:59 AM 41.0 °F 32.2 °F 35.6 °F 81% 29.58 in 10.0 mi South 18.4 mph - N/A   Mostly Cloudy
5:17 AM 41.0 °F 33.9 °F 35.6 °F 81% 29.57 in 10.0 mi South 12.7 mph - N/A Thunderstorm Scattered Clouds
5:43 AM 41.0 °F 37.1 °F 35.6 °F 81% 29.59 in 10.0 mi West 5.8 mph - 0.00 in   Mostly Cloudy
5:52 AM 42.1 °F 39.2 °F 37.0 °F 82% 29.59 in 10.0 mi SSW 4.6 mph - 0.00 in   Overcast
6:20 AM 42.8 °F 39.3 °F 37.4 °F 81% 29.56 in 10.0 mi South 5.8 mph - N/A   Overcast
6:32 AM 41.0 °F 35.8 °F 37.4 °F 87% 29.57 in 10.0 mi WNW 8.1 mph - N/A   Mostly Cloudy
6:41 AM 41.0 °F 37.1 °F 37.4 °F 87% 29.56 in 10.0 mi North 5.8 mph - N/A   Mostly Cloudy
6:52 AM 39.9 °F 34.5 °F 36.0 °F 86% 29.57 in 10.0 mi NNE 8.1 mph - N/A   Mostly Cloudy
7:21 AM 39.2 °F 35.0 °F 35.6 °F 87% 29.54 in 8.0 mi ENE 5.8 mph - N/A   Overcast
7:52 AM 39.0 °F 32.8 °F 35.1 °F 86% 29.55 in 7.0 mi NNE 9.2 mph - 0.00 in   Overcast
8:48 AM 39.2 °F 35.0 °F 37.4 °F 93% 29.52 in 5.0 mi East 5.8 mph - N/A   Overcast
8:52 AM 39.9 °F 36.7 °F 37.0 °F 89% 29.53 in 5.0 mi East 4.6 mph - N/A   Overcast
9:26 AM 42.8 °F 38.0 °F 37.4 °F 81% 29.51 in 6.0 mi ENE 8.1 mph - N/A   Overcast
9:52 AM 42.1 °F 37.7 °F 39.0 °F 89% 29.50 in 6.0 mi ESE 6.9 mph - N/A   Overcast
10:33 AM 53.6 °F - 48.2 °F 82% 29.46 in 8.0 mi South 21.9 mph 28.8 mph N/A   Mostly Cloudy
10:52 AM 54.0 °F - 50.0 °F 86% 29.45 in 9.0 mi South 21.9 mph 32.2 mph N/A   Overcast
11:52 AM 57.9 °F - 53.1 °F 84% 29.40 in 10.0 mi South 24.2 mph 34.5 mph N/A   Mostly Cloudy
12:52 PM 60.1 °F - 55.0 °F 83% 29.33 in 10.0 mi South 23.0 mph 34.5 mph N/A   Mostly Cloudy
1:52 PM 61.0 °F - 55.0 °F 81% 29.30 in 10.0 mi South 26.5 mph 36.8 mph N/A   Overcast
2:19 PM 62.6 °F - 55.4 °F 77% 29.28 in 10.0 mi South 25.3 mph 34.5 mph N/A   Overcast
2:50 PM 62.6 °F - 55.4 °F 77% 29.24 in 10.0 mi SSE 24.2 mph 34.5 mph N/A   Mostly Cloudy
2:52 PM 62.1 °F - 55.9 °F 80% 29.24 in 10.0 mi SSE 23.0 mph 34.5 mph N/A   Mostly Cloudy
3:23 PM 60.8 °F - 55.4 °F 82% 29.23 in 10.0 mi SSE 21.9 mph 29.9 mph 0.00 in Rain , Thunderstorm Thunderstorms and Rain
3:40 PM 60.8 °F - 55.4 °F 82% 29.24 in 3.0 mi South 21.9 mph 31.1 mph 0.04 in Rain , Thunderstorm Thunderstorms and Rain
3:43 PM 60.8 °F - 55.4 °F 82% 29.26 in 1.8 mi South 18.4 mph 31.1 mph 0.06 in Rain , Thunderstorm Thunderstorms and Rain
3:50 PM 60.8 °F - 57.2 °F 88% 29.25 in 6.0 mi SW 13.8 mph 26.5 mph 0.16 in Rain Light Rain
3:52 PM 61.0 °F - 57.0 °F 87% 29.25 in 6.0 mi SSW 17.3 mph 25.3 mph 0.16 in Rain Light Rain
3:59 PM 62.6 °F - 55.4 °F 77% 29.26 in 10.0 mi SSW 21.9 mph 38.0 mph 0.00 in   Overcast
4:20 PM 57.2 °F - 46.4 °F 67% 29.30 in 10.0 mi WSW 29.9 mph 40.3 mph 0.00 in   Mostly Cloudy
4:52 PM 55.0 °F - 43.0 °F 64% 29.31 in 10.0 mi WSW 36.8 mph 48.3 mph 0.00 in   Clear
5:52 PM 44.1 °F 32.4 °F 35.1 °F 71% 29.45 in 10.0 mi WSW 41.4 mph 63.3 mph N/A   Mostly Cloudy
6:52 PM 39.9 °F 27.8 °F 30.9 °F 70% 29.54 in 10.0 mi WSW 33.4 mph 46.0 mph N/A   Overcast
7:52 PM 39.0 °F 28.0 °F 30.9 °F 73% 29.61 in 10.0 mi West 25.3 mph 33.4 mph N/A   Overcast
8:52 PM 37.0 °F 26.2 °F 30.0 °F 76% 29.65 in 10.0 mi WSW 21.9 mph 29.9 mph N/A   Partly Cloudy
9:52 PM 36.0 °F 27.1 °F 28.9 °F 76% 29.65 in 10.0 mi WSW 13.8 mph - N/A   Clear
10:52 PM 37.0 °F 27.7 °F 28.9 °F 73% 29.61 in 10.0 mi WSW 16.1 mph 24.2 mph N/A   Clear
11:52 PM 36.0 °F 25.6 °F 28.9 °F 76% 29.59 in 10.0 mi WSW 18.4 mph 26.5 mph N/A   Clear